Estación de Tranapuente INIA

Ultimos registro cada 15 minutos 43
Estación Fecha / Hora Temperatura Humedad Lluvia Velocidad Dirección Radiación Presion
43 Tranapuente INIA 04-05-2026 10:30 10,3 99,4 0 0 123 55 1007
42 Tranapuente INIA 04-05-2026 10:15 10,1 99,4 0 0,1 148 67 1007
41 Tranapuente INIA 04-05-2026 10:00 9,9 99,9 0 0 0 50 1007
40 Tranapuente INIA 04-05-2026 09:45 9,8 99,8 0 0 0 47 1007
39 Tranapuente INIA 04-05-2026 09:30 9,6 99,9 0 0 0 38 1006
38 Tranapuente INIA 04-05-2026 09:15 9,6 99,9 0 0,1 119 25 1007
37 Tranapuente INIA 04-05-2026 09:00 9,5 99,9 0 0 0 20 1006
36 Tranapuente INIA 04-05-2026 08:45 9,5 99,9 0 0,4 115 20 1007
35 Tranapuente INIA 04-05-2026 08:30 9,4 99,9 0 0,6 104 21 1006
34 Tranapuente INIA 04-05-2026 08:15 9,3 99,9 0 0 113 12 1006
33 Tranapuente INIA 04-05-2026 08:00 9,3 100 0 0 101 3 1006
32 Tranapuente INIA 04-05-2026 07:45 9,4 99,9 0 0 0 1 1006
31 Tranapuente INIA 04-05-2026 07:30 9,4 99,9 0,2 0,1 88 0 1006
30 Tranapuente INIA 04-05-2026 07:15 9,5 100 0 0 0 0 1006
29 Tranapuente INIA 04-05-2026 07:00 9,6 100 0 0 0 0 1006
28 Tranapuente INIA 04-05-2026 06:45 9,6 99,9 0 0 0 0 1006
27 Tranapuente INIA 04-05-2026 06:30 9,6 99,8 0 0 0 0 1006
26 Tranapuente INIA 04-05-2026 06:15 9,6 99,9 0 0 0 0 1006
25 Tranapuente INIA 04-05-2026 06:00 9,7 99,8 0,1 0 0 0 1006
24 Tranapuente INIA 04-05-2026 05:45 9,6 99,9 0 0 0 0 1006
23 Tranapuente INIA 04-05-2026 05:30 9,4 99,9 0 0 108 0 1006
22 Tranapuente INIA 04-05-2026 05:15 9,5 99,7 0 0 0 0 1006
21 Tranapuente INIA 04-05-2026 05:00 9,5 99,7 0 0 0 0 1006
20 Tranapuente INIA 04-05-2026 04:45 9,6 99,6 0 0 0 0 1006
19 Tranapuente INIA 04-05-2026 04:30 9,6 99,6 0 0 0 0 1006
18 Tranapuente INIA 04-05-2026 04:15 9,5 99,6 0 0 0 0 1006
17 Tranapuente INIA 04-05-2026 04:00 9,5 99,5 0 0 0 0 1006
16 Tranapuente INIA 04-05-2026 03:45 9,5 99,3 0 0 0 0 1006
15 Tranapuente INIA 04-05-2026 03:30 9,6 99,2 0 0 0 0 1006
14 Tranapuente INIA 04-05-2026 03:15 9,8 98,9 0 0 0 0 1007
13 Tranapuente INIA 04-05-2026 03:00 9,8 98,9 0 0 0 0 1006
12 Tranapuente INIA 04-05-2026 02:45 9,9 98,3 0 0,2 108 0 1007
11 Tranapuente INIA 04-05-2026 02:30 10,2 98,3 0 0 0 0 1007
10 Tranapuente INIA 04-05-2026 02:15 10,4 98,4 0 0 0 0 1007
9 Tranapuente INIA 04-05-2026 02:00 10,5 98,3 0 0 0 0 1007
8 Tranapuente INIA 04-05-2026 01:45 10,4 97,7 0 0,1 58 0 1007
7 Tranapuente INIA 04-05-2026 01:30 10,1 99,6 0 0 0 0 1007
6 Tranapuente INIA 04-05-2026 01:15 10 99,9 0,2 0 0 0 1007
5 Tranapuente INIA 04-05-2026 01:00 10,4 99,4 0 0 0 0 1008
4 Tranapuente INIA 04-05-2026 00:45 10,7 99,6 0 0,4 101 0 1008
3 Tranapuente INIA 04-05-2026 00:30 10,4 99,9 0 0 0 0 1008
2 Tranapuente INIA 04-05-2026 00:15 10,2 99,9 0 1,3 100 0 1008
1 Tranapuente INIA 04-05-2026 00:00 10,1 100 0,3 0,2 100 0 1009